SL-8 DEB, 21164

Orbit data source: Space-Track

SL-8 DEB, 21164 is space debris in LEO originally from a launch on Tue, 12 Feb 1991 UTC launched from the Plesetsk Missile And Space Complex (PKMTR). Debris objects in space refer to the collection of defunct objects orbiting the Earth. Examples of debris include non-operational satellites, rocket bodies, and fragments generated from explosions, collisions, or faulty payload assembly.

Loading next visibility...
Identifier
21164, 1991-009AB
Orbit
LEO
Country
Flag of CISCIS
Related business
Manufacturer
Unknown
Mission
Spacecraft
Bus & Motor
Unknown
Mass
Unknown
Launch date (UTC)
1991-02-12 (35 years ago)
Launch vehicle
Unknown
Launch site
Plesetsk Missile And Space Complex (PKMTR)
Object type
Payload
Rocket body
Debris
Shape & HBR
Unknown shape, 0.3 m
Radar Cross Section
Medium (>0.1 m² and <1 m²)

Expand to show TLE details & history
Last TLE update: 2 days ago

TLE from 2 days ago
0 SL-8 DEB
1 21164U 91009AB  26171.32560941  .00000009  00000-0  21782-3 0  9992
2 21164  74.0442 126.7552 0126140 199.5339 314.2593 12.22032362573148
Epoch: 2026-06-20T07:48Z
TLE epoch observation values (Epoch: 2026-06-20T07:48:52.653Z)
Latitude
26.15941°
Longitude
-87.03926°
Altitude
1,516.923 km
Speed
7.14 km/s
True Right ascension
19h 54m 53s
True Declination
26° 02' 12"
Sunlit
Object was in daylight at epoch
Visualization orbit readout
Latitude
Unknown
Longitude
Unknown
Altitude
Unknown
Speed
Unknown
Apparent Right ascension
Unknown
Apparent Declination
Unknown
Sunlit
N/A
Visualization observer readout
Local Sidereal Time
02:30:11
Azimuth
Unknown
Elevation
Unknown
Doppler factor
Unknown
Orbital elements
Apogee altitude
1,681.971 km
Perigee altitude
1,481.164 km
Semi-major axis
7,959.705 km
Eccentricity
0.01261
Inclination
74.0442°
RAAN
126.7552°
Arg. of periapsis
199.5339°
True anomaly
313.21262°
Mean anomaly
314.2593°
Eccentric anomaly
313.73711°
Mean motion
3.05631 °/min
Orbital period
117.79 mins
BSTAR
0.00021782
Loading maneuver chart data...
Computing Atmospheric mass density...
Loading historical data...
Loading historical data...
Loading historical data...
Loading historical data...
Loading historical data...
Loading historical data...
Loading historical data...

Documentation

Showing up to 5 results
|